#timestamp,LO_Frequency,Hit 
1502560815.6,286047002.4,N
1502560835.4,286047002.6,N
1502560855.3,286047003.6,N
1502560875.1,286047007.8,N
1502560876.0,286047007.8,N
1502560895.8,286047010.1,P
1502560915.7,286047003.5,N
1502560935.5,286047000.3,N
1502560955.3,286047001.2,N
1502560975.2,286047000.8,N
1502560995.9,286047000.4,N
1502561015.7,286046998.4,N
1502561035.6,286046998.1,N
1502561055.4,286047003.5,N
1502561075.2,286047001.4,N
1502561095.1,286047007.3,N
1502561096.0,286047007.3,N
1502561115.8,286047007.0,N
1502561135.6,286047006.7,N
1502561155.4,286047006.1,N
1502561175.3,286047003.0,N
1502561195.1,286047006.7,N
1502561215.8,286047005.3,N
1502561235.7,286047003.0,N
1502561255.5,286047001.9,N
1502561275.3,286047000.5,N
1502561295.2,286047002.7,N
1502561315.9,286047002.2,N
1502561335.7,286047002.7,N
1502561355.6,286047002.2,N
1502561375.4,286047002.5,N
1502561395.2,286046999.8,N
1502561415.0,286047004.0,N
1502561435.4,286047002.0,N
1502561455.2,286047001.3,N
1502561475.1,286047000.6,N
1502561476.0,286047000.6,N
1502561495.8,286046998.4,N
1502561515.6,286046996.8,N
1502561535.5,286046997.2,N
1502561555.3,286046999.5,N
1502561575.1,286047001.1,N
1502561595.9,286047000.5,N
1502561615.7,286047000.9,N
1502561635.5,286047002.6,N
1502561655.3,286047000.3,N
1502561675.2,286046998.1,N
1502561695.0,286047002.3,N
1502561695.9,286047002.3,N
1502561715.7,286046999.8,N
1502561735.6,286047004.1,N
1502561755.4,286047000.0,N
1502561775.2,286047000.2,N
1502561795.1,286047000.9,N
1502561796.0,286047000.9,N
1502561815.8,286047000.6,N
1502561835.6,286047000.7,N
1502561855.5,286046998.2,N
1502561875.3,286046999.9,N
1502561895.1,286047003.4,N
1502561915.9,286047007.5,P
1502561935.7,286047006.6,N
1502561955.5,286047008.9,N
1502561975.4,286047010.3,P
1502561995.2,286046998.5,N
1502562015.0,286046996.9,N
1502562015.9,286046996.9,N
1502562035.8,286046995.6,N
1502562055.6,286046996.4,N
1502562075.4,286046992.5,N
1502562095.3,286046993.0,N
1502562115.1,286046993.0,N
1502562135.8,286046992.5,N
1502562155.7,286046990.7,N
1502562175.5,286046990.2,N
1502562195.3,286046990.8,N
1502562215.2,286046989.4,N
1502562235.9,286046990.2,N
1502562255.7,286046990.7,N
1502562275.6,286046988.7,N
1502562295.4,286046993.1,N
1502562315.2,286046991.5,N
1502562335.0,286046988.7,N
1502562335.9,286046988.7,N
1502562355.8,286046985.5,N
1502562375.6,286046986.3,N
1502562395.4,286046984.4,N
1502562415.3,286046982.7,P
1502562435.1,286046989.2,N
1502562455.9,286046989.3,N
1502562475.7,286046987.2,P
1502562495.5,286047000.8,N
1502562515.4,286047004.3,N
1502562535.2,286047002.0,N
1502562555.0,286047002.4,N
1502562555.9,286047002.4,N
1502562575.8,286047000.4,N
1502562595.6,286046998.7,N
1502562615.4,286047002.6,N
1502562635.3,286046997.3,N
1502562655.1,286046998.4,N
1502562656.0,286046998.4,N
1502562675.8,286046997.0,N
1502562695.7,286046996.7,N
1502562715.5,286047000.3,N
1502562735.3,286047000.5,N
1502562755.1,286047001.4,N
1502562775.9,286047004.2,N
1502562795.7,286047006.7,N
1502562815.5,286047006.7,N
1502562835.4,286047006.1,N
1502562855.2,286047008.8,N
1502562875.0,286047008.7,N
1502562875.9,286047008.7,N
1502562895.8,286047008.3,N
1502562915.6,286047007.9,N
1502562935.4,286047010.4,N
1502562955.3,286047010.3,N
1502562975.1,286047009.8,N
1502562976.0,286047009.8,N
1502562995.8,286047011.4,N
1502563015.7,286047012.8,N
1502563035.5,286047016.0,P
1502563055.3,286047011.6,N
1502563075.2,286047010.7,N
1502563095.9,286047010.3,N
1502563115.7,286047013.9,P
1502563135.6,286047003.5,N
1502563155.4,286047003.1,N
1502563175.2,286046998.2,N
1502563195.1,286046999.7,N
1502563196.0,286046999.7,N
1502563215.8,286047002.7,N
1502563235.6,286047001.2,N
1502563255.5,286047000.4,N
1502563275.3,286047000.8,N
1502563295.1,286046998.5,N
1502563315.9,286046997.1,N
1502563335.7,286046991.8,N
1502563355.5,286046993.9,N
1502563375.4,286046994.0,N
1502563395.2,286046994.9,N
1502563415.0,286046999.3,N
1502563415.9,286046999.3,N
1502563435.7,286046997.5,N
1502563455.6,286046999.0,N
1502563475.4,286047000.4,N
1502563495.2,286047002.6,N
1502563515.1,286047002.8,N
1502563516.0,286047002.8,N
1502563535.8,286047001.3,N
1502563555.6,286047004.2,N
1502563575.5,286047003.3,N
1502563595.3,286047007.3,N
1502563615.1,286047003.2,N
1502563635.9,286047003.3,N
1502563655.7,286047005.4,N
1502563675.5,286047003.1,N
1502563695.4,286047002.0,N
1502563715.2,286047004.4,N
1502563735.0,286047001.6,N
1502563735.9,286047001.6,N
1502563755.8,286047001.1,N
1502563775.6,286047002.5,N
1502563795.4,286046998.1,N
1502563815.3,286046997.8,N
1502563835.1,286046999.6,N
1502563836.0,286046999.6,N
1502563855.8,286046996.7,N
1502563875.7,286046996.0,N
1502563895.5,286046997.8,N
1502563915.3,286046999.7,N
1502563935.1,286047000.7,N
1502563955.9,286047001.9,N
1502563975.7,286047002.3,N
1502563995.5,286047001.0,N
1502564015.4,286047002.7,N
1502564035.2,286046998.1,N
1502564055.0,286046999.0,N
1502564055.9,286046999.0,N
1502564075.8,286046998.4,N
1502564095.6,286047000.3,N
1502564115.4,286047002.7,N
1502564135.3,286047001.2,N
1502564155.1,286047000.6,N
1502564175.8,286047000.8,N
1502564195.7,286046996.9,N
1502564215.5,286046997.3,N
1502564235.3,286046997.0,N
1502564255.2,286046995.3,N
1502564275.9,286046999.6,N
1502564295.7,286046999.1,N
1502564315.6,286046996.8,N
1502564335.4,286046998.6,N
1502564355.2,286046997.7,N
1502564375.1,286046998.1,N
1502564376.0,286046998.1,N
1502564395.8,286047002.7,N
